Regional Weather Roundup
Issued by NWS

Home | Current Version | Previous Version | Text Only | Print | Product List | Glossary On
Versions: 1 2 3 4 5 6 7 8 9 10 11 12 13 14 15 16 17 18 19 20 21 22 23 24 25 26 27 28
000
ASUS45 KREV 251710
RWRNV
NEVADA REGIONAL WEATHER ROUNDUP
NATIONAL WEATHER SERVICE RENO NV
1000 AM PDT TUE JUL 25 2017

NOTE: "FAIR" INDICATES FEW OR NO CLOUDS BELOW 12,000 FEET WITH NO
SIGNIFICANT WEATHER AND/OR OBSTRUCTIONS TO VISIBILITY.

NVZ001-003-004-251800-
WESTERN NEVADA

CITY           SKY/WX    TMP DP  RH WIND       PRES   REMARKS
RENO           MOSUNNY   77  53  43 E3        30.11R
CARSON CITY    FAIR      75  48  38 CALM      30.13S
MINDEN         FAIR      75  48  38 MISG      30.12S
FALLON         MOSUNNY   80  52  37 S5        30.07S
LOVELOCK       SUNNY     78  54  43 SW5       30.08R
HAWTHORNE      SUNNY     77  57  50 VRB6      30.09R
$$

NVZ002-CAZ072-073-251800-
NORTHERN AND CENTRAL SIERRA

CITY           SKY/WX    TMP DP  RH WIND       PRES   REMARKS
S. LAKE TAHOE  SUNNY     73  50  44 NE8       30.20S
SQUAW VLY 8000   N/A     63  45  51 SW5         N/A
SUSANVILLE     SUNNY     79  52  38 E6        30.10R
MAMMOTH LAKES  FAIR      71  48  45 E6        30.29S
BRIDGEPORT     FAIR      66  46  48 CALM      30.22S
$$

NVZ030-031-036-251800-
NORTHERN NEVADA

CITY           SKY/WX    TMP DP  RH WIND       PRES   REMARKS
ELKO           SUNNY     78  48  34 CALM      30.15S
WINNEMUCCA     NOT AVBL
WENDOVER       PTSUNNY   77  54  44 CALM      30.12
$$

NVZ035-037-251800-
CENTRAL NEVADA

CITY           SKY/WX    TMP DP  RH WIND       PRES   REMARKS
ELY            MOSUNNY   71  52  50 CALM      30.22F
EUREKA           N/A     69  52  54 S5        30.21S
$$

NVZ013-014-251800-
SOUTH CENTRAL NEVADA

CITY           SKY/WX    TMP DP  RH WIND       PRES   REMARKS
TONOPAH        MOSUNNY   72  58  61 VRB6      30.20R
$$

NVZ017-020-022-251800-
SOUTHERN NEVADA

CITY           SKY/WX    TMP DP  RH WIND       PRES   REMARKS
LAS VEGAS      CLOUDY    78  67  68 VRB3      30.05R
N. LAS VEGAS   CLOUDY    76  68  76 SE7       30.04R
NELLIS AFB     PTSUNNY   76  70  81 NE8       30.03R
HENDERSON      CLOUDY   N/A N/A N/A N3        30.08R
MERCURY        MOSUNNY   80  66  62 SE14      30.06S
$$




USA.gov is the U.S. government's official web portal to all federal, state and local government web resources and services.